Regional Weather Roundup
Issued by NWS Goodland, KS

Home | Current Version | Previous Version | Text Only | Print | Product List | Glossary On
Versions: 1 2 3 4 5 6 7 8 9 10 11 12 13 14 15 16 17 18 19 20 21 22 23 24 25 26 27 28 29 30 31 32 33 34 35 36 37 38 39 40 41 42 43 44 45 46 47 48 49 50
000
ASUS43 KGLD 292210
RWRGLD

GOODLAND FORECAST AREA HOURLY WEATHER ROUNDUP
NATIONAL WEATHER SERVICE DODGE CITY KS
FOR NATIONAL WEATHER SERVICE GOODLAND KS
500 PM CDT WED JUL 29 2015

...OFFICIAL OBSERVATIONS...

CITY           SKY/WX    TMP DP  RH WIND       PRES   REMARKS
GOODLAND KS    SUNNY     80  40  23 SE13G21   30.26F
HILL CITY KS   SUNNY     85  51  31 E10       30.22F
IMPERIAL NEB   SUNNY     84  48  28 S16G22    30.24F
MCCOOK NEB     SUNNY     85  51  31 E8        30.22F
AKRON CO       SUNNY     81  46  29 S14G24    30.28F
BURLINGTON CO  SUNNY     80  42  25 S14       30.29F
LIMON CO       SUNNY     78  46  32 SE20G26   30.32F
$$

...UNOFFICIAL OBSERVATIONS...

CITY           SKY/WX    TMP DP  RH WIND       PRES   REMARKS
COLBY KS       NOT AVBL
HOXIE KS       NOT AVBL
TRIBUNE KS     NOT AVBL
IDALIA CO      NOT AVBL
YUMA CO        NOT AVBL
$$



USA.gov is the U.S. government's official web portal to all federal, state and local government web resources and services.